Guadalupe Pass, TX

9:46 PM MST on December 14, 2017 (GMT -0700)
Guadalupe Pass

Weather History for KGDP - September, 2013

Change the Weather History Date:

Thursday, September 12, 2013

  Actual Average Record
Temperature  
Mean Temperature 63 °F -  
Max Temperature 66 °F 80 °F 95 °F (2000)
Min Temperature 60 °F 59 °F 46 °F (2014)
Degree Days  
Heating Degree Days 2    
Growing Degree Days 13 (Base 50)    
Moisture  
Dew Point 61 °F    
Average Humidity 98    
Maximum Humidity 100    
Minimum Humidity 81    
Precipitation  
Precipitation 4.62 in - - ()
Sea Level Pressure  
Sea Level Pressure 30.15 in    
Wind  
Wind Speed 21 mph (NE)    
Max Wind Speed 30 mph    
Max Gust Speed 38 mph    
Visibility 2 miles    
Events Fog , Rain    
Averages and records for this station are not official NWS values.
T = Trace of Precipitation, MM = Missing Value Source: NWS Daily Summary

Daily Weather History Graph

Daily Weather History Graph

Search for Another Location

Airport or City:

Trip Planner

Search our weather history database for the weather conditions in past years. The results will help you decide how hot, cold, wet, or windy it might be!

Date:

Astronomy

Sep. 12, 2013 Rise Set
Actual Time 6:41 AM MDT 7:08 PM MDT
Civil Twilight 6:17 AM MDT 7:33 PM MDT
Nautical Twilight 5:48 AM MDT 8:01 PM MDT
Astronomical Twilight 5:19 AM MDT 8:30 PM MDT
Moon 1:48 PM MDT (9/12) No Moon Set
Length of Visible Light 13h 16m
Length of Day
12h 27m
Waxing Crescent, 51% of the Moon is Illuminated
Sep 12
Waxing Crescent
Sep 19
Full
Sep 26
Last Quarter
Oct 4
New
Oct 11
First Quarter

Hourly Weather History & Observations

Time (MDT) Temp. Dew Point Humidity Pressure Visibility Wind Dir Wind Speed Gust Speed Precip Events Conditions
12:02 AM 62.1 °F 62.1 °F 100% 30.20 in 0.5 mi NE 20.7 mph - 0.12 in Fog , Rain Heavy Rain
12:15 AM 62.1 °F 62.1 °F 100% 30.19 in 0.5 mi NE 23.0 mph 29.9 mph 0.48 in Fog , Rain Heavy Rain
12:29 AM 62.1 °F 62.1 °F 100% 30.20 in 0.8 mi NNE 15.0 mph - 0.56 in Rain Light Rain
12:51 AM 64.0 °F 62.1 °F 93% 29.99 in 0.2 mi ENE 18.4 mph - 0.65 in Fog , Rain Light Rain
1:51 AM 62.1 °F 62.1 °F 100% 29.99 in 0.2 mi ENE 20.7 mph 26.5 mph 0.02 in Fog Fog
2:06 AM 62.1 °F 62.1 °F 100% 30.18 in 0.5 mi ENE 20.7 mph - N/A Fog Fog
2:51 AM 62.1 °F 62.1 °F 100% 29.97 in 0.2 mi ENE 23.0 mph - 0.08 in Fog , Rain Heavy Rain
3:00 AM 62.1 °F 62.1 °F 100% 30.18 in 0.8 mi ENE 21.9 mph - 0.05 in Rain Heavy Rain
3:14 AM 62.1 °F 62.1 °F 100% 30.17 in 0.2 mi ENE 23.0 mph - 0.07 in Fog , Rain Rain
3:36 AM 62.1 °F 62.1 °F 100% 30.17 in 0.5 mi ENE 23.0 mph - 0.20 in Fog , Rain Heavy Rain
3:49 AM 62.6 °F 62.6 °F 100% 30.17 in 0.5 mi ENE 23.0 mph - 0.24 in Fog , Rain Rain
3:51 AM 62.1 °F 62.1 °F 100% 29.98 in 0.5 mi ENE 23.0 mph - 0.24 in Fog , Rain Rain
3:55 AM 62.1 °F 62.1 °F 100% 30.17 in 0.2 mi ENE 24.2 mph - 0.00 in Fog , Rain Light Rain
4:26 AM 62.1 °F 62.1 °F 100% 30.17 in 0.5 mi ENE 21.9 mph - 0.04 in Fog , Rain Heavy Rain
4:34 AM 62.1 °F 62.1 °F 100% 30.17 in 0.2 mi ENE 21.9 mph - 0.07 in Fog , Rain Heavy Rain
4:51 AM 62.1 °F 62.1 °F 100% 29.99 in 0.2 mi ENE 20.7 mph 31.1 mph 0.21 in Fog , Rain Heavy Rain
5:16 AM 62.1 °F 62.1 °F 100% 30.18 in 0.2 mi NE 21.9 mph - 0.33 in Fog , Rain Heavy Rain
5:51 AM 62.1 °F 62.1 °F 100% 30.02 in 0.5 mi ENE 23.0 mph - 1.03 in Fog , Rain Heavy Rain
6:15 AM 62.1 °F 62.1 °F 100% 30.20 in 0.2 mi ENE 19.6 mph - 0.27 in Fog , Rain Heavy Rain
6:34 AM 62.1 °F 62.1 °F 100% 30.21 in 0.2 mi ENE 16.1 mph - 0.39 in Fog , Rain Heavy Rain
6:41 AM 62.1 °F 62.1 °F 100% 30.21 in 0.5 mi ENE 17.3 mph - 0.43 in Fog , Rain Heavy Rain
6:46 AM 62.6 °F 62.6 °F 100% 30.21 in 0.2 mi ENE 15.0 mph - 0.46 in Fog , Rain Heavy Rain
6:51 AM 62.1 °F 62.1 °F 100% 30.03 in 0.2 mi NE 16.1 mph - 0.49 in Fog , Rain Heavy Rain
7:39 AM 61.0 °F 61.0 °F 100% 30.20 in 0.5 mi NE 17.3 mph - 0.29 in Fog , Rain Heavy Rain
7:51 AM 61.0 °F 61.0 °F 100% 30.03 in 0.5 mi ENE 16.1 mph - 0.38 in Fog , Rain Heavy Rain
8:10 AM 61.0 °F 61.0 °F 100% 30.23 in 0.2 mi NE 17.3 mph - 0.08 in Fog , Rain Heavy Rain
8:41 AM 61.0 °F 61.0 °F 100% 30.23 in 0.2 mi NE 17.3 mph - 0.37 in Fog , Rain Heavy Rain
8:51 AM 61.0 °F 61.0 °F 100% 30.05 in 0.2 mi ENE 19.6 mph - 0.49 in Fog , Rain Heavy Rain
9:18 AM 61.0 °F 61.0 °F 100% 30.24 in 0.2 mi ENE 15.0 mph - 0.21 in Fog , Rain Heavy Rain
9:33 AM 61.0 °F 61.0 °F 100% 30.26 in 0.2 mi NE 12.7 mph - 0.33 in Fog , Rain Heavy Rain
9:46 AM 60.8 °F 60.8 °F 100% 30.25 in 0.2 mi NE 16.1 mph - 0.60 in Fog , Rain Heavy Rain
9:51 AM 61.0 °F 61.0 °F 100% 30.08 in 0.2 mi NE 15.0 mph - 0.71 in Fog , Rain Heavy Rain
10:06 AM 61.0 °F 61.0 °F 100% 30.26 in 0.2 mi ENE 16.1 mph - 0.08 in Fog , Rain Heavy Rain
10:19 AM 61.0 °F 61.0 °F 100% 30.26 in 0.2 mi NE 16.1 mph - 0.10 in Fog , Rain Light Rain
10:27 AM 61.0 °F 61.0 °F 100% 30.26 in 0.2 mi NE 18.4 mph - 0.11 in Fog , Rain Rain
10:36 AM 61.0 °F 61.0 °F 100% 30.25 in 0.2 mi NE 19.6 mph - 0.12 in Fog , Rain Heavy Rain
10:43 AM 61.0 °F 61.0 °F 100% 30.25 in 0.2 mi NE 19.6 mph - 0.14 in Fog , Rain Rain
10:51 AM 61.0 °F 61.0 °F 100% 30.07 in 0.2 mi NE 19.6 mph - 0.16 in Fog , Rain Rain
11:51 AM 61.0 °F 61.0 °F 100% 30.07 in 0.2 mi NE 24.2 mph - 0.02 in Fog , Rain Light Rain
12:51 PM 61.0 °F 61.0 °F 100% 30.03 in 0.2 mi NE 25.3 mph - 0.00 in Fog , Rain Light Rain
1:51 PM 62.1 °F 62.1 °F 100% 30.00 in 0.2 mi NE 24.2 mph - 0.02 in Fog , Rain Light Rain
2:51 PM 62.1 °F 62.1 °F 100% 30.18 in 0.2 mi NE 12.7 mph - 0.00 in Fog , Rain Light Rain
3:27 PM 62.1 °F 62.1 °F 100% 30.30 in 1.0 mi NNE 18.4 mph 25.3 mph 0.00 in   Overcast
3:33 PM 62.1 °F 62.1 °F 100% 30.30 in 3.0 mi NE 19.6 mph - 0.00 in Rain Light Rain
3:37 PM 62.1 °F 62.1 °F 100% 30.29 in 3.0 mi NE 23.0 mph - 0.00 in Rain Light Rain
3:51 PM 62.1 °F 62.1 °F 100% 30.09 in 5.0 mi NE 25.3 mph - 0.00 in   Overcast
4:51 PM 62.1 °F 62.1 °F 100% 29.96 in 2.5 mi NE 23.0 mph - 0.05 in Rain Rain
5:28 PM 63.0 °F 61.0 °F 93% 30.13 in 5.0 mi NE 24.2 mph - 0.06 in Rain Light Rain
5:51 PM 64.0 °F 61.0 °F 90% 29.97 in 5.0 mi NE 21.9 mph - 0.07 in Rain Light Rain
6:51 PM 64.9 °F 60.1 °F 84% - 7.0 mi NE 29.9 mph - 0.00 in   Overcast
7:51 PM 66.0 °F 60.1 °F 81% - 9.0 mi NE 28.8 mph - N/A   Overcast
8:51 PM 64.9 °F 60.1 °F 84% - 8.0 mi NE 27.6 mph - N/A   Overcast
9:51 PM 64.9 °F 60.1 °F 84% - 8.0 mi ENE 26.5 mph - N/A   Overcast
10:51 PM 64.9 °F 59.0 °F 81% - 8.0 mi ENE 26.5 mph - N/A   Overcast
11:51 PM 64.9 °F 59.0 °F 81% - 8.0 mi ENE 28.8 mph 38.0 mph N/A   Overcast